Location: Oshawa
(43.9000°N, 78.8670°W)
Time: 13:30:29
(UTC-04:00)

Amateur Radio Satellites - All Passes

Search period start: 17 August 2017 13:00
Search period end: 18 August 2017 13:00
Location: Oshawa, 43.9000°N, 78.8670°W

Satellite Date Start Highest point End Downlink Frequencies (MHz)
Time Altitude Azimuth
ISS 17 Aug 13:01:28 13:04:45 74° 330° (NNW) 13:08:01 437.550
Tancredo 1 17 Aug 13:02:31 13:05:06 27° 341° (NNW) 13:07:41 437.200
NANOSAT C BR1 17 Aug 13:13:25 13:16:55 25° 265° (W) 13:20:25 145.865
POLYITAN 1 17 Aug 13:14:20 13:17:40 23° 266° (W) 13:21:01 437.675
nSIGHT-1 17 Aug 13:15:11 13:18:24 55° 333° (NNW) 13:21:38 .
SPROUT 17 Aug 13:17:13 13:21:11 38° 98° (E) 13:25:08 437.525
QB50P2 17 Aug 13:30:21 13:32:43 15° 269° (W) 13:35:06 145.880/145.840
RS-15 17 Aug 13:30:46 13:43:04 75° 308° (NW) 13:55:28 29.354- 29.394
EO-79 17 Aug 13:32:26 13:34:54 15° 269° (W) 13:37:24 145.935-145.965
Oscar 19 17 Aug 13:44:52 13:49:58 75° 74° (ENE) 13:55:09 437.125/150
ESTCUBE 1 17 Aug 13:49:52 13:53:43 27° 293° (WNW) 13:57:32 437.505/2401.250
50 SAT 17 Aug 14:08:53 14:12:09 42° 99° (E) 14:15:21 437.505
AO-7 17 Aug 14:12:06 14:18:56 29° 53° (NE) 14:25:47 .
VELOX 1 17 Aug 14:14:00 14:18:25 66° 286° (WNW) 14:22:46 145.980
UKube-1 17 Aug 14:16:10 14:19:45 25° 95° (E) 14:23:18 .
BUGSAT 1 17 Aug 14:23:35 14:26:21 17° 267° (W) 14:29:06 437.445
Gurwin Techsat 1B 17 Aug 14:25:32 14:30:50 74° 257° (WSW) 14:36:11 435.225
DX 1 17 Aug 14:28:50 14:33:07 51° 100° (E) 14:37:20 434.975-435.025
BEESAT 3 17 Aug 14:36:07 14:39:38 28° 46° (NE) 14:43:07 437.485
ISS 17 Aug 14:38:54 14:41:37 23° 349° (N) 14:44:21 437.550
Tancredo 1 17 Aug 14:38:55 14:40:59 17° 1° (N) 14:43:03 437.200
BEESAT 2 17 Aug 14:41:08 14:43:30 15° 37° (NE) 14:45:51 435.950
nSIGHT-1 17 Aug 14:52:40 14:55:17 22° 352° (N) 14:57:53 .
SPROUT 17 Aug 14:53:41 14:56:50 21° 295° (WNW) 14:59:58 437.525
ITAMSAT 1 17 Aug 14:56:31 15:00:53 28° 64° (ENE) 15:05:15 435.822/435.867
AO-85 17 Aug 15:14:44 15:18:51 47° 51° (NE) 15:23:15 145.980
ITUPSAT 1 17 Aug 15:20:54 15:23:28 14° 90° (E) 15:26:01 437.325
Oscar 19 17 Aug 15:27:11 15:29:51 14° 271° (W) 15:32:32 437.125/150
50 SAT 17 Aug 15:43:00 15:44:26 12° 296° (WNW) 15:45:52 437.505
RS-15 17 Aug 15:47:14 15:58:04 33° 337° (NNW) 16:08:48 29.354- 29.394
UKube-1 17 Aug 15:51:57 15:55:47 31° 292° (WNW) 15:59:35 .
AO-7 17 Aug 16:02:38 16:10:59 74° 253° (WSW) 16:19:24 .
DX 1 17 Aug 16:06:04 16:08:53 17° 298° (WNW) 16:11:41 434.975-435.025
DOVE 4 17 Aug 16:09:52 16:11:44 12° 58° (ENE) 16:13:36 437.250
BEESAT 3 17 Aug 16:13:40 16:17:12 31° 244° (WSW) 16:20:40 437.485
Tancredo 1 17 Aug 16:14:10 16:16:50 31° 21° (NNE) 16:19:30 437.200
ISS 17 Aug 16:16:10 16:18:51 22° 9° (N) 16:21:30 437.550
BEESAT 2 17 Aug 16:17:44 16:21:49 85° 238° (WSW) 16:25:50 435.950
BEESAT 17 Aug 16:25:18 16:30:02 63° 102° (ESE) 16:34:46 436.000
nSIGHT-1 17 Aug 16:29:40 16:32:25 24° 13° (NNE) 16:35:08 .
ITAMSAT 1 17 Aug 16:35:16 16:40:09 40° 262° (W) 16:45:04 435.822/435.867
YUBILEINY 17 Aug 16:35:36 16:44:05 56° 90° (E) 16:52:33 435.215
MOZHAYETS 4 17 Aug 16:44:00 16:48:38 85° 100° (E) 16:53:15
CUBESAT XI-V 17 Aug 16:53:51 16:57:39 24° 93° (E) 17:01:25 437.345
AO-85 17 Aug 16:55:43 16:59:01 21° 246° (WSW) 17:02:28 145.980
ITUPSAT 1 17 Aug 16:57:00 17:01:44 66° 287° (WNW) 17:06:27 437.325
XW-2C 17 Aug 17:20:30 17:22:09 13° 63° (ENE) 17:23:48 145.795 - 145.815
KKS-1 17 Aug 17:24:22 17:27:42 20° 93° (E) 17:31:01 437.445
XW-2F 17 Aug 17:34:59 17:37:28 17° 66° (ENE) 17:39:57 145.980 - 146.000
DOVE 4 17 Aug 17:43:15 17:48:33 77° 75° (ENE) 17:53:47 437.250
Tancredo 1 17 Aug 17:49:23 17:52:07 37° 218° (SW) 17:54:49 437.200
ISS 17 Aug 17:52:31 17:55:46 63° 29° (NNE) 17:59:00 437.550
HO-68 17 Aug 17:53:24 17:58:21 21° 54° (NE) 18:03:17 435.675
AO-7 17 Aug 18:00:54 18:05:07 15° 273° (W) 18:09:23 .
BEESAT 17 Aug 18:04:21 18:07:19 17° 299° (WNW) 18:10:16 436.000
RS-15 17 Aug 18:05:17 18:15:32 29° 12° (NNE) 18:25:28 29.354- 29.394
nSIGHT-1 17 Aug 18:05:53 18:09:08 85° 32° (NNE) 18:12:22 .
KAITUO 1B 17 Aug 18:05:54 18:09:09 30° 70° (ENE) 18:12:26 145.475/437.950
LilacSat-2 17 Aug 18:13:17 18:16:57 53° 74° (ENE) 18:20:40 437.200
STARS 17 Aug 18:13:35 18:17:21 28° 96° (E) 18:21:04 437.465
CUTE-I 17 Aug 18:16:00 18:21:12 54° 70° (ENE) 18:26:25 437.470
XW-2D 17 Aug 18:22:21 18:26:03 67° 75° (ENE) 18:29:48 145.860 - 145.880
MOZHAYETS 4 17 Aug 18:23:24 18:25:06 12° 301° (WNW) 18:26:48
CUBESAT XI-V 17 Aug 18:30:44 18:35:07 39° 290° (WNW) 18:39:29 437.345
XW-2B 17 Aug 18:33:14 18:36:59 87° 76° (ENE) 18:40:46 145.730 - 145.750
YUBILEINY 17 Aug 18:33:23 18:41:15 35° 291° (WNW) 18:49:08 435.215
NUDT-PHONESAT 17 Aug 18:44:04 18:47:43 88° 78° (ENE) 18:51:25 437.300
XW-2C 17 Aug 18:52:14 18:55:53 52° 260° (W) 18:59:36 145.795 - 145.815
SEEDS 17 Aug 18:57:29 19:00:31 20° 65° (ENE) 19:03:34 437.485
KKS-1 17 Aug 19:00:15 19:04:24 40° 291° (WNW) 19:08:32 437.445
XW-2F 17 Aug 19:07:52 19:11:19 35° 263° (W) 19:14:48 145.980 - 146.000
CUBEBUG 2 17 Aug 19:09:16 19:12:35 22° 67° (ENE) 19:15:51 437.445
UWE-3 17 Aug 19:11:21 19:13:30 14° 63° (ENE) 19:15:39 435.000/436.395/437.385
XW-2A 17 Aug 19:13:22 19:15:48 19° 68° (ENE) 19:18:15 145.665 - 145.685
DOVE 4 17 Aug 19:23:50 19:26:43 15° 272° (W) 19:29:36 437.250
ISS 17 Aug 19:29:38 19:31:57 18° 226° (SW) 19:34:15 437.550
CUTE 1.7 + AOD 2 17 Aug 19:36:27 19:40:39 80° 76° (ENE) 19:44:56 437.475
HO-68 17 Aug 19:38:00 19:45:11 89° 263° (W) 19:52:23 435.675
Oscar 11 17 Aug 19:38:23 19:39:06 10° 59° (ENE) 19:39:48 .
KAITUO 1B 17 Aug 19:40:31 19:43:12 19° 267° (W) 19:45:55 145.475/437.950
nSIGHT-1 17 Aug 19:43:33 19:45:05 13° 228° (SW) 19:46:37 .
STARS 17 Aug 19:49:52 19:53:39 29° 293° (WNW) 19:57:23 437.465
LilacSat-2 17 Aug 19:50:18 19:51:34 11° 270° (W) 19:52:50 437.200
AAUSAT CUBESAT 2 17 Aug 19:53:34 19:57:21 35° 70° (ENE) 20:01:10 437.432
CUTE-I 17 Aug 19:57:32 20:01:33 21° 268° (W) 20:05:35 437.470
ZACube-1 17 Aug 19:58:22 20:01:40 23° 67° (ENE) 20:04:58 437.345
RS-15 17 Aug 20:19:33 20:31:32 56° 44° (NE) 20:42:50 29.354- 29.394
AO-73 17 Aug 20:21:18 20:25:05 36° 71° (ENE) 20:28:52 145.935
O/OREOS (USA 219) 17 Aug 20:28:28 20:33:00 66° 65° (ENE) 20:37:31 437.305
SEEDS 17 Aug 20:31:59 20:35:55 39° 262° (W) 20:39:55 437.485
CUBEBUG 2 17 Aug 20:45:03 20:49:01 35° 263° (W) 20:52:56 437.445
UWE-3 17 Aug 20:45:20 20:49:31 59° 260° (W) 20:53:39 435.000/436.395/437.385
XW-2A 17 Aug 20:45:41 20:48:24 23° 264° (W) 20:51:10 145.665 - 145.685
STRAND 1 17 Aug 20:47:13 20:52:20 75° 102° (ESE) 20:57:26 437.568
Oscar 11 17 Aug 21:10:14 21:14:32 87° 261° (W) 21:18:52 .
HO-68 17 Aug 21:29:31 21:33:49 17° 272° (W) 21:38:08 435.675
AAUSAT CUBESAT 2 17 Aug 21:29:44 21:32:53 21° 267° (W) 21:36:04 437.432
DELFI C3 17 Aug 21:33:12 21:36:56 39° 71° (ENE) 21:40:42 145.870
ZACube-1 17 Aug 21:34:05 21:37:49 31° 264° (W) 21:41:32 437.345
EO-88 17 Aug 21:35:51 21:38:48 24° 69° (ENE) 21:41:46 145.990 - 145.960
FO-29 17 Aug 21:57:03 22:01:56 28° 93° (E) 22:06:29 435.910
AO-73 17 Aug 21:58:23 22:01:27 20° 267° (W) 22:04:30 145.935
UNISAT 6 17 Aug 22:02:43 22:04:34 12° 90° (E) 22:06:25 437.425
Max Valier Satellite 17 Aug 22:06:28 22:10:05 74° 76° (ENE) 22:13:44 145.860
O/OREOS (USA 219) 17 Aug 22:09:43 22:11:49 13° 262° (W) 22:13:54 437.305
STRAND 1 17 Aug 22:27:55 22:30:54 16° 301° (WNW) 22:33:53 437.568
RS-15 17 Aug 22:32:36 22:43:57 52° 249° (WSW) 22:54:44 29.354- 29.394
TIGRISAT 17 Aug 22:37:26 22:41:05 27° 95° (E) 22:44:46 435.000
PCSat 17 Aug 23:08:04 23:12:08 22° 107° (ESE) 23:16:11 145.827
DELFI C3 17 Aug 23:09:12 23:11:52 17° 268° (W) 23:14:32 145.870
EO-88 17 Aug 23:09:28 23:12:24 23° 265° (W) 23:15:21 145.990 - 145.960
ESTCUBE 1 17 Aug 23:13:35 23:17:39 34° 69° (ENE) 23:21:45 437.505/2401.250
PRISM 17 Aug 23:13:42 23:17:44 49° 100° (E) 23:21:43 437.425
LO-87 17 Aug 23:17:03 23:20:33 52° 74° (ENE) 23:24:04 145.935 - 145.965
UNISAT 6 17 Aug 23:37:26 23:41:41 62° 286° (WNW) 23:45:57 437.425
VELOX 1 17 Aug 23:38:05 23:40:33 15° 61° (ENE) 23:43:01 145.980
FO-29 17 Aug 23:41:50 23:47:13 39° 294° (WNW) 23:52:08 435.910
AIST 2D 17 Aug 23:52:35 23:55:23 21° 94° (E) 23:58:11 435.315
SO-50 18 Aug 00:00:58 00:04:47 27° 114° (ESE) 00:08:35 436.795
SPROUT 18 Aug 00:11:36 00:15:28 35° 70° (ENE) 00:19:21 437.525
DUCHIFAT 1 18 Aug 00:13:51 00:15:55 13° 90° (E) 00:17:59 145.980
TIGRISAT 18 Aug 00:14:04 00:17:44 29° 292° (WNW) 00:21:27 435.000
M-CUBED/EXP-1 PRIME 18 Aug 00:31:22 00:35:37 42° 103° (ESE) 00:39:36 437.505
50 SAT 18 Aug 00:41:37 00:44:09 19° 67° (ENE) 00:46:41 437.505
PCSat 18 Aug 00:49:44 00:55:04 58° 305° (NW) 01:00:28 145.827
PRISM 18 Aug 00:50:03 00:52:37 16° 297° (WNW) 00:55:10 437.425
ESTCUBE 1 18 Aug 00:50:49 00:54:30 25° 266° (W) 00:58:13 437.505/2401.250
LO-87 18 Aug 00:53:32 00:54:17 10° 270° (W) 00:55:01 145.935 - 145.965
NANOSAT C BR1 18 Aug 00:55:19 00:59:19 43° 99° (E) 01:03:19 145.865
POLYITAN 1 18 Aug 00:56:31 01:00:36 49° 100° (E) 01:04:41 437.675
QB50P2 18 Aug 01:11:20 01:15:34 81° 105° (ESE) 01:19:47 145.880/145.840
UKube-1 18 Aug 01:11:49 01:15:24 26° 66° (ENE) 01:19:00 .
VELOX 1 18 Aug 01:12:03 01:16:28 64° 258° (WSW) 01:20:55 145.980
EO-79 18 Aug 01:13:21 01:17:34 77° 103° (ESE) 01:21:45 145.935-145.965
DX 1 18 Aug 01:25:15 01:29:31 53° 72° (ENE) 01:33:48 434.975-435.025
AIST 2D 18 Aug 01:25:38 01:28:32 24° 290° (WNW) 01:31:26 435.315
SO-50 18 Aug 01:40:52 01:45:05 38° 313° (NW) 01:49:19 436.795
DUCHIFAT 1 18 Aug 01:47:50 01:51:55 55° 287° (WNW) 01:56:00 145.980
SPROUT 18 Aug 01:48:08 01:51:27 22° 266° (W) 01:54:47 437.525
Oscar 19 18 Aug 01:55:36 01:59:44 24° 93° (E) 02:03:51 437.125/150
BEESAT 18 Aug 01:59:05 02:00:31 11° 57° (ENE) 02:01:57 436.000
BUGSAT 1 18 Aug 02:02:05 02:06:03 57° 100° (E) 02:10:00 437.445
M-CUBED/EXP-1 PRIME 18 Aug 02:06:16 02:09:43 22° 301° (WNW) 02:13:01 437.505
MOZHAYETS 4 18 Aug 02:13:29 02:14:59 11° 59° (ENE) 02:16:28
50 SAT 18 Aug 02:13:48 02:16:41 25° 264° (W) 02:19:35 437.505
ITUPSAT 1 18 Aug 02:28:37 02:32:08 21° 63° (ENE) 02:35:40 437.325
NANOSAT C BR1 18 Aug 02:31:51 02:34:43 18° 296° (WNW) 02:37:36 145.865
POLYITAN 1 18 Aug 02:33:23 02:36:00 16° 297° (WNW) 02:38:37 437.675
PCSat 18 Aug 02:36:58 02:39:40 14° 327° (NNW) 02:42:23 145.827
Gurwin Techsat 1B 18 Aug 02:40:27 02:45:26 39° 98° (E) 02:50:23 435.225
YUBILEINY 18 Aug 02:44:16 02:51:39 29° 66° (ENE) 02:58:57 435.215
UKube-1 18 Aug 02:47:28 02:51:18 31° 263° (W) 02:55:10 .
QB50P2 18 Aug 02:49:42 02:50:43 11° 300° (WNW) 02:51:44 145.880/145.840
EO-79 18 Aug 02:51:27 02:52:42 11° 300° (WNW) 02:53:58 145.935-145.965
NO-84 18 Aug 02:55:28 02:58:08 35° 135° (SE) 03:00:47 435.350 FM
DX 1 18 Aug 03:03:25 03:06:01 15° 269° (W) 03:08:37 434.975-435.025
BEESAT 18 Aug 03:32:46 03:37:31 85° 75° (ENE) 03:42:18 436.000
Oscar 19 18 Aug 03:34:17 03:39:15 46° 290° (WNW) 03:44:12 437.125/150
BUGSAT 1 18 Aug 03:39:00 03:40:57 13° 298° (WNW) 03:42:52 437.445
MOZHAYETS 4 18 Aug 03:46:52 03:51:25 87° 254° (WSW) 03:56:00
CUBESAT XI-V 18 Aug 03:58:21 04:02:15 27° 67° (ENE) 04:06:10 437.345
AO-7 18 Aug 04:03:04 04:10:32 35° 97° (E) 04:17:54 .
ITUPSAT 1 18 Aug 04:05:02 04:09:38 48° 260° (W) 04:14:14 437.325
Gurwin Techsat 1B 18 Aug 04:20:41 04:25:13 29° 295° (WNW) 04:29:45 435.225
KKS-1 18 Aug 04:23:36 04:27:10 24° 65° (ENE) 04:30:43 437.445
NO-84 18 Aug 04:33:13 04:35:35 23° 333° (NNW) 04:37:58 435.350 FM
YUBILEINY 18 Aug 04:40:32 04:49:08 66° 267° (W) 04:57:40 435.215
ITAMSAT 1 18 Aug 04:46:12 04:51:21 63° 102° (ESE) 04:56:28 435.822/435.867
STARS 18 Aug 05:11:16 05:15:07 30° 68° (ENE) 05:18:58 437.465
BEESAT 18 Aug 05:14:51 05:15:54 11° 272° (W) 05:16:58 436.000
CUBESAT XI-V 18 Aug 05:35:17 05:39:29 34° 264° (W) 05:43:45 437.345
DOVE 4 18 Aug 05:42:24 05:45:31 18° 90° (E) 05:48:31 437.250
AO-7 18 Aug 05:55:31 06:03:37 57° 296° (WNW) 06:11:39 .
KKS-1 18 Aug 05:59:23 06:03:31 36° 262° (W) 06:07:40 437.445
BEESAT 3 18 Aug 06:04:06 06:07:33 28° 115° (ESE) 06:11:02 437.485
BEESAT 2 18 Aug 06:12:42 06:13:57 11° 108° (ESE) 06:15:13 435.950
NO-84 18 Aug 06:13:25 06:13:51 10° 355° (N) 06:14:16 435.350 FM
XW-2C 18 Aug 06:24:25 06:26:34 14° 91° (E) 06:28:42 145.795 - 145.815
ITAMSAT 1 18 Aug 06:26:47 06:30:19 19° 300° (WNW) 06:33:51 435.822/435.867
STRAND 1 18 Aug 06:27:38 06:30:55 17° 60° (ENE) 06:34:11 437.568
CUTE-I 18 Aug 06:32:31 06:36:13 19° 91° (E) 06:39:52 437.470
XW-2F 18 Aug 06:38:45 06:41:36 20° 93° (E) 06:44:26 145.980 - 146.000
YUBILEINY 18 Aug 06:41:05 06:44:04 12° 288° (WNW) 06:47:03 435.215
STARS 18 Aug 06:47:40 06:51:26 27° 264° (W) 06:55:12 437.465
HO-68 18 Aug 07:06:07 07:10:11 16° 88° (E) 07:14:14 435.675
KAITUO 1B 18 Aug 07:09:00 07:12:31 35° 97° (E) 07:16:02 145.475/437.950
AO-85 18 Aug 07:10:40 07:14:37 90° 299° (WNW) 07:18:33 145.980
LilacSat-2 18 Aug 07:18:57 07:22:50 68° 102° (ESE) 07:26:40 437.200
DOVE 4 18 Aug 07:19:03 07:23:33 47° 289° (WNW) 07:27:47 437.250
CUTE 1.7 + AOD 2 18 Aug 07:21:34 07:23:30 13° 89° (E) 07:25:27 437.475
XW-2D 18 Aug 07:27:17 07:31:08 83° 103° (ESE) 07:34:59 145.860 - 145.880
XW-2B 18 Aug 07:38:15 07:42:06 76° 283° (WNW) 07:45:55 145.730 - 145.750
BEESAT 3 18 Aug 07:41:26 07:45:02 31° 313° (NW) 07:48:42 437.485
NUDT-PHONESAT 18 Aug 07:46:32 07:50:18 80° 281° (WNW) 07:54:02 437.300
BEESAT 2 18 Aug 07:47:06 07:51:06 73° 306° (NW) 07:55:10 435.950
AO-7 18 Aug 07:50:26 07:54:37 15° 318° (NW) 07:58:48 .
NO-84 18 Aug 07:50:35 07:52:19 14° 17° (NNE) 07:54:05 435.350 FM
PCSat 18 Aug 07:53:14 07:57:53 28° 46° (NE) 08:02:28 145.827
XW-2C 18 Aug 07:57:18 08:00:58 43° 288° (WNW) 08:04:37 145.795 - 145.815
STRAND 1 18 Aug 08:04:27 08:09:33 68° 258° (WSW) 08:14:39 437.568
XW-2A 18 Aug 08:05:59 08:08:15 17° 93° (E) 08:10:29 145.665 - 145.685
FO-29 18 Aug 08:10:17 08:15:40 22° 59° (ENE) 08:20:43 435.910
CUTE-I 18 Aug 08:11:25 08:16:40 60° 289° (WNW) 08:21:52 437.470
XW-2F 18 Aug 08:12:21 08:15:46 31° 290° (WNW) 08:19:09 145.980 - 146.000
SEEDS 18 Aug 08:14:11 08:17:56 29° 95° (E) 08:21:40 437.485
SO-50 18 Aug 08:30:06 08:34:23 39° 48° (NE) 08:38:41 436.795
UWE-3 18 Aug 08:33:33 08:36:57 23° 94° (E) 08:40:23 435.000/436.395/437.385
CUBEBUG 2 18 Aug 08:33:44 08:37:40 39° 98° (E) 08:41:39 437.445
KAITUO 1B 18 Aug 08:43:39 08:46:16 18° 294° (WNW) 08:48:52 145.475/437.950
HO-68 18 Aug 08:51:41 08:58:54 86° 107° (ESE) 09:06:04 435.675
AO-85 18 Aug 08:53:42 08:55:36 13° 324° (NW) 08:57:31 145.980
CUTE 1.7 + AOD 2 18 Aug 08:55:29 08:59:44 61° 286° (WNW) 09:03:58 437.475
LilacSat-2 18 Aug 08:55:34 08:56:32 11° 298° (WNW) 08:57:31 437.200
Oscar 11 18 Aug 08:57:08 08:59:48 16° 91° (E) 09:02:28 .
UNISAT 6 18 Aug 09:03:03 09:05:20 14° 62° (ENE) 09:07:38 437.425
AAUSAT CUBESAT 2 18 Aug 09:09:01 09:13:09 54° 100° (E) 09:17:14 437.432
ZACube-1 18 Aug 09:20:01 09:24:03 40° 98° (E) 09:28:08 437.345
NO-84 18 Aug 09:27:09 09:30:12 59° 36° (NE) 09:33:28 435.350 FM
BEESAT 2 18 Aug 09:27:52 09:29:35 12° 326° (NW) 09:31:19 435.950
PCSat 18 Aug 09:36:17 09:41:34 54° 245° (WSW) 09:46:49 145.827
TIGRISAT 18 Aug 09:37:25 09:41:07 28° 68° (ENE) 09:44:48 435.000
XW-2A 18 Aug 09:38:04 09:41:00 28° 290° (WNW) 09:43:58 145.665 - 145.685
AO-73 18 Aug 09:43:01 09:47:16 66° 102° (ESE) 09:51:34 145.935
SEEDS 18 Aug 09:49:58 09:53:32 26° 292° (WNW) 09:57:03 437.485
FO-29 18 Aug 09:52:17 10:00:00 86° 254° (WSW) 10:07:05 435.910
PRISM 18 Aug 10:03:52 10:07:47 41° 71° (ENE) 10:11:44 437.425
UWE-3 18 Aug 10:09:41 10:13:26 32° 290° (WNW) 10:17:14 435.000/436.395/437.385
SO-50 18 Aug 10:10:49 10:14:42 28° 245° (WSW) 10:18:36 436.795
CUBEBUG 2 18 Aug 10:11:02 10:14:03 20° 294° (WNW) 10:17:05 437.445
Tancredo 1 18 Aug 10:17:32 10:19:35 18° 136° (SE) 10:21:39 437.200
AIST 2D 18 Aug 10:30:15 10:31:00 11° 63° (ENE) 10:31:45 435.315
Oscar 11 18 Aug 10:32:00 10:36:13 50° 288° (WNW) 10:40:26 .
EO-88 18 Aug 10:36:13 10:39:17 25° 95° (E) 10:42:21 145.990 - 145.960
UNISAT 6 18 Aug 10:37:16 10:41:35 61° 259° (WSW) 10:45:51 437.425
HO-68 18 Aug 10:40:41 10:45:46 21° 306° (NW) 10:50:51 435.675
O/OREOS (USA 219) 18 Aug 10:42:01 10:46:23 59° 110° (ESE) 10:50:48 437.305
DELFI C3 18 Aug 10:43:03 10:46:59 53° 100° (E) 10:50:51 145.870
AAUSAT CUBESAT 2 18 Aug 10:45:45 10:48:10 15° 297° (WNW) 10:50:34 437.432
RS-15 18 Aug 10:46:37 10:55:59 27° 101° (E) 11:05:24 29.354- 29.394
nSIGHT-1 18 Aug 10:47:42 10:48:51 11° 131° (SE) 10:49:59 .
ZACube-1 18 Aug 10:57:00 11:00:04 20° 294° (WNW) 11:03:10 437.345
NO-84 18 Aug 11:05:22 11:07:20 15° 231° (SW) 11:09:24 435.350 FM
DUCHIFAT 1 18 Aug 11:07:28 11:09:22 13° 62° (ENE) 11:11:17 145.980
Max Valier Satellite 18 Aug 11:08:30 11:12:13 85° 102° (ESE) 11:15:55 145.860
TIGRISAT 18 Aug 11:14:02 11:17:46 27° 264° (W) 11:21:28 435.000
M-CUBED/EXP-1 PRIME 18 Aug 11:17:15 11:21:40 65° 68° (ENE) 11:26:17 437.505
AO-73 18 Aug 11:20:59 11:23:00 13° 298° (WNW) 11:25:01 145.935
PRISM 18 Aug 11:40:24 11:43:14 18° 267° (W) 11:46:05 437.425
FO-29 18 Aug 11:41:06 11:45:44 17° 272° (W) 11:50:12 435.910
NANOSAT C BR1 18 Aug 11:48:26 11:52:19 37° 70° (ENE) 11:56:12 145.865
POLYITAN 1 18 Aug 11:50:04 11:54:04 43° 71° (ENE) 11:58:03 437.675
Tancredo 1 18 Aug 11:51:42 11:54:35 55° 333° (NNW) 11:57:27 437.200
AIST 2D 18 Aug 12:00:19 12:03:43 53° 260° (W) 12:07:10 435.315
QB50P2 18 Aug 12:04:46 12:08:58 70° 74° (ENE) 12:13:09 145.880/145.840
EO-79 18 Aug 12:06:35 12:10:46 67° 74° (ENE) 12:14:57 145.935-145.965
ISS 18 Aug 12:09:15 12:12:29 63° 144° (SE) 12:15:44 437.550
EO-88 18 Aug 12:09:56 12:12:51 23° 292° (WNW) 12:15:46 145.990 - 145.960
LO-87 18 Aug 12:15:45 12:19:14 52° 100° (E) 12:22:40 145.935 - 145.965
DELFI C3 18 Aug 12:19:13 12:21:18 14° 297° (WNW) 12:23:22 145.870
nSIGHT-1 18 Aug 12:21:29 12:24:45 85° 147° (SSE) 12:28:01 .
O/OREOS (USA 219) 18 Aug 12:23:15 12:26:12 17° 309° (NW) 12:29:10 437.305
Gurwin Techsat 1B 18 Aug 12:27:33 12:29:03 11° 55° (NE) 12:30:33 435.225
DUCHIFAT 1 18 Aug 12:40:22 12:44:31 65° 258° (WSW) 12:48:41 145.980
ESTCUBE 1 18 Aug 12:40:39 12:45:11 62° 101° (E) 12:49:40 437.505/2401.250
M-CUBED/EXP-1 PRIME 18 Aug 12:54:02 12:56:29 14° 266° (W) 12:59:01 437.505
